Moses Lake, Washington, United States (98837)
Lat: 47.13N, Lon: 119.28W
Wx Zone: WAZ034
Local Info
Past Weather Observations for Today

NOTE: This archive is for the closest National Weather Service station to Moses Lake. Information may differ from the station used for current weather conditions.

Click here for Long-term Archive

Time Weather Temperature Dewpoint Humidity Pressure Winds Precip Visibility
15:52
Overcast
36°F / 2°C 32°F / 0°C 87% 30.06 in
(1018 mb)
SSE 6.9 mph
(SSE 11 kph)
- 10SM
15:21
Overcast
36°F / 2°C 34°F / 1°C 93% 30.06 in
(1018 mb)
S 6.9 mph
(S 11 kph)
- 10SM
14:59
Overcast
36°F / 2°C 34°F / 1°C 93% 30.06 in
(1018 mb)
SSE 5.8 mph
(SSE 9 kph)
- 10SM
14:52
Overcast
Fog And Mist
36°F / 2°C 34°F / 1°C 93% 30.06 in
(1018 mb)
SSE 5.8 mph
(SSE 9 kph)
0.01 in
(0.25 mm)
4SM
14:01
Overcast
Fog And Mist
36°F / 2°C 34°F / 1°C 93% 30.09 in
(1019 mb)
S 5.8 mph
(S 9 kph)
0.01 in
(0.25 mm)
4SM
13:52
Overcast
Fog And Mist
36°F / 2°C 34°F / 1°C 93% 30.09 in
(1019 mb)
SW 8.1 mph
(SW 13 kph)
0.01 in
(0.25 mm)
3SM
13:24
Overcast
Unknown Precip
36°F / 2°C 34°F / 1°C 93% 30.09 in
(1019 mb)
S 5.8 mph
(S 9 kph)
0.01 in
(0.25 mm)
3SM
13:09
Overcast
Light Snow
36°F / 2°C 34°F / 1°C 93% 30.09 in
(1019 mb)
S 6.9 mph
(S 11 kph)
0.00 in
(0.00 mm)
3SM
12:52
Overcast
Fog And Mist
37°F / 3°C 32°F / 0°C 81% 30.12 in
(1020 mb)
SSE 5.8 mph
(SSE 9 kph)
0.00 in
(0.00 mm)
3SM
12:05
Overcast
37°F / 3°C 30°F / -1°C 75% 30.12 in
(1020 mb)
SW 4.6 mph
(SW 7 kph)
- 10SM
11:52
Overcast
37°F / 3°C 30°F / -1°C 75% 30.12 in
(1020 mb)
S 5.8 mph
(S 9 kph)
- 10SM
10:52
Overcast
37°F / 3°C 30°F / -1°C 75% 30.15 in
(1021 mb)
SE 3.5 mph
(SE 6 kph)
- 10SM
09:52
Overcast
37°F / 3°C 32°F / 0°C 81% 30.15 in
(1021 mb)
NNE 5.8 mph
(NNE 9 kph)
- 10SM
08:52
Overcast
36°F / 2°C 30°F / -1°C 81% 30.15 in
(1021 mb)
NNW 8.1 mph
(NNW 13 kph)
- 10SM
07:52
Overcast
34°F / 1°C 30°F / -1°C 87% 30.18 in
(1022 mb)
N 6.9 mph
(N 11 kph)
- 10SM
06:52
Overcast
34°F / 1°C 30°F / -1°C 87% 30.18 in
(1022 mb)
N 6.9 mph
(N 11 kph)
- 10SM
05:52
Clear
34°F / 1°C 30°F / -1°C 87% 30.21 in
(1023 mb)
N 6.9 mph
(N 11 kph)
- 10SM
04:52
Clear
34°F / 1°C 30°F / -1°C 87% 30.24 in
(1024 mb)
N 6.9 mph
(N 11 kph)
- 10SM
03:52
Overcast
36°F / 2°C 30°F / -1°C 81% 30.24 in
(1024 mb)
N 5.8 mph
(N 9 kph)
- 10SM
02:52
Overcast
36°F / 2°C 30°F / -1°C 81% 30.27 in
(1025 mb)
N 5.8 mph
(N 9 kph)
- 10SM
01:52
Overcast
36°F / 2°C 32°F / 0°C 87% 30.3 in
(1026 mb)
N 9.2 mph
(N 15 kph)
- 10SM
01:43
Overcast
36°F / 2°C 32°F / 0°C 87% 30.3 in
(1026 mb)
N 8.1 mph
(N 13 kph)
- 10SM
01:32
Overcast
34°F / 1°C 32°F / 0°C 93% 30.3 in
(1026 mb)
NNW 8.1 mph
(NNW 13 kph)
- 10SM
01:14
Overcast
36°F / 2°C 30°F / -1°C 81% 30.3 in
(1026 mb)
N 6.9 mph
(N 11 kph)
- 10SM
00:52
Overcast
36°F / 2°C 30°F / -1°C 81% 30.3 in
(1026 mb)
N 5.8 mph
(N 9 kph)
- 10SM
Time Weather Temperature Dewpoint Humidity Pressure Winds Precip Visibility


Weather for websites

WeatherForYou.com, LLC is not responsible for any damages or problems caused by this service. Current weather conditions are obtained from the closest station including government and personal stations which may have varying degrees of accuracy. Weather forecasts are derived from the NOAA NDFD. Like all things, this site belongs to Jesus Christ... He just trusts me to maintain it. If you have any questions or comments email webmaster@weatherforyou.com

Copyright © 2015, WeatherForYou.com LLC. All rights reserved.